Temp
1 1 1 0 1 2 -0 0 1 -0 -0 0 1 1 1 1 1 2 1 1 1 2 3 4 2 3 4 4 4 4 4 5 5 5 5 5 5 5 4 4 4 4 5
1 1 1 1 0 1 0 0 -0 1 1 1 1 1 2 3 2 2 2 2 1 1 2 3 2 2 3 4 4 4 4 4 5 5 5 4 4 4 4 4 4 4 4
1 1 1 1 1 0 0 0 1 1 1 2 3 3 4 3 3 3 3 3 1 1 2 2 2 2 2 3 4 4 4 4 4 4 4 4 4 4 4 4 4 4 4
1 1 0 0 0 0 0 0 1 1 1 -0 1 2 2 2 3 2 3 2 2 2 0 1 1 2 2 2 3 4 4 4 4 4 4 4 4 4 4 4 4 4 4
0 -0 -0 0 0 1 1 1 0 0 1 1 1 1 2 1 1 2 2 2 1 0 1 -0 1 1 1 1 2 3 3 4 4 4 4 4 4 4 4 4 3 4 4
-0 -1 -1 -0 -0 -0 0 -0 -0 -0 0 0 1 1 1 1 1 1 2 1 2 1 0 0 -0 1 1 1 1 3 3 4 4 4 4 3 3 3 3 3 3 3 3
-1 -1 -1 -1 -1 -1 -1 -1 -1 -1 -1 0 1 1 1 1 0 0 1 0 0 -0 -0 -1 -1 -0 1 1 1 1 3 3 3 4 4 3 3 3 3 3 3 3 3
-2 -2 -2 -2 -2 -2 -2 -2 -1 -1 -1 -1 -1 -0 0 0 1 0 0 -0 -0 -1 -0 0 -0 -1 -0 1 1 1 2 2 3 3 4 3 3 3 3 3 3 3 3
-3 -3 -3 -3 -3 -3 -3 -3 -3 -3 -3 -3 -2 -2 -2 -1 0 0 0 -1 -1 -0 -1 0 -0 -1 -0 0 1 0 1 2 3 3 3 3 3 3 3 3 2 2 2
-4 -4 -4 -4 -4 -4 -4 -4 -5 -5 -5 -5 -5 -4 -3 -3 -2 -1 -1 -1 -1 -1 -1 -1 -1 -1 -1 -1 -0 0 0 2 2 2 3 3 3 3 2 2 2 2 2
-5 -5 -5 -6 -7 -6 -6 -6 -6 -6 -6 -6 -6 -6 -6 -4 -4 -4 -1 -2 -2 -3 -2 -2 -1 -1 -1 -1 -1 -0 0 1 1 1 2 2 2 2 2 2 2 2 2
-6 -7 -7 -8 -8 -9 -9 -9 -8 -8 -7 -6 -7 -7 -7 -7 -6 -5 -5 -3 -2 -3 -3 -2 -2 -2 -1 -1 -1 -1 -0 -0 0 0 1 2 2 2 2 2 2 2 2
-8 -9 -9 -9 -10 -10 -11 -11 -11 -11 -10 -9 -9 -8 -8 -7 -7 -6 -6 -5 -4 -3 -4 -3 -3 -2 -2 -2 -2 -2 -1 -1 -1 -0 0 1 0 1 1 1 1 1 1
-9 -9 -10 -10 -10 -10 -11 -11 -11 -11 -11 -11 -10 -10 -10 -9 -9 -8 -7 -7 -6 -4 -4 -4 -3 -4 -3 -3 -2 -2 -2 -2 -2 -1 -1 -0 0 -1 -1 -1 1 1 1
-10 -10 -10 -10 -11 -11 -11 -12 -12 -12 -12 -12 -11 -11 -10 -11 -12 -10 -9 -9 -9 -7 -5 -4 -4 -5 -3 -3 -3 -3 -2 -3 -2 -2 -1 -1 -1 -1 -1 -1 -1 -0 0
-11 -11 -11 -11 -12 -12 -12 -12 -12 -12 -12 -12 -12 -12 -11 -11 -12 -12 -9 -9 -10 -9 -7 -5 -5 -4 -4 -3 -3 -2 -2 -2 -3 -3 -2 -2 -2 -2 -1 -1 -1 -2 -1
-11 -12 -12 -12 -12 -12 -12 -12 -12 -12 -12 -12 -12 -12 -12 -12 -12 -13 -12 -12 -12 -11 -10 -7 -6 -5 -5 -5 -5 -4 -3 -3 -3 -2 -3 -2 -2 -2 -2 -2 -3 -3 -2
-12 -12 -12 -13 -13 -13 -13 -13 -12 -12 -12 -12 -12 -12 -12 -12 -12 -12 -12 -12 -12 -12 -11 -9 -8 -7 -6 -6 -5 -5 -4 -4 -3 -3 -3 -3 -3 -2 -2 -3 -3 -3 -3
-12 -13 -13 -13 -13 -13 -13 -13 -13 -13 -13 -12 -12 -13 -12 -12 -12 -12 -13 -12 -12 -12 -12 -11 -10 -9 -8 -7 -6 -5 -5 -4 -3 -3 -3 -3 -4 -4 -3 -3 -3 -4 -4
-13 -13 -13 -13 -13 -13 -13 -13 -13 -13 -13 -12 -12 -12 -13 -13 -13 -12 -14 -13 -12 -12 -13 -12 -11 -11 -9 -8 -7 -7 -5 -6 -4 -3 -4 -3 -3 -3 -3 -3 -3 -4 -4
-13 -13 -13 -13 -13 -13 -13 -13 -13 -13 -13 -12 -12 -12 -12 -12 -12 -12 -13 -13 -13 -13 -13 -14 -13 -11 -11 -10 -8 -7 -8 -7 -7 -5 -4 -4 -4 -4 -3 -3 -4 -4 -4
-13 -13 -13 -13 -13 -13 -13 -13 -13 -13 -13 -12 -12 -12 -12 -12 -13 -13 -13 -13 -13 -13 -12 -13 -14 -13 -12 -10 -9 -8 -8 -8 -6 -6 -6 -5 -4 -4 -4 -4 -3 -4 -4
-13 -13 -13 -13 -13 -13 -13 -13 -13 -13 -13 -13 -13 -13 -13 -13 -13 -13 -13 -13 -13 -13 -13 -12 -13 -14 -13 -13 -10 -9 -9 -8 -8 -7 -5 -6 -4 -4 -4 -4 -4 -5 -5
-13 -13 -13 -14 -14 -13 -14 -13 -13 -14 -14 -14 -13 -13 -13 -13 -13 -14 -14 -14 -14 -14 -13 -13 -12 -13 -14 -14 -13 -10 -9 -9 -9 -8 -7 -8 -6 -5 -5 -5 -5 -5 -5
-14 -14 -14 -14 -14 -13 -14 -14 -14 -14 -14 -14 -14 -14 -14 -14 -14 -14 -15 -14 -14 -14 -14 -13 -12 -13 -13 -13 -13 -12 -10 -10 -9 -9 -8 -8 -6 -6 -5 -5 -5 -5 -5
-14 -14 -14 -14 -14 -14 -14 -14 -14 -14 -14 -14 -14 -14 -14 -14 -15 -15 -15 -15 -15 -15 -15 -14 -14 -13 -13 -12 -12 -11 -11 -10 -10 -9 -8 -8 -7 -7 -6 -5 -5 -5 -6
Height
3116 3114 3112 3110 3105 3098 3103 3102 3102 3102 3100 3104 3110 3109 3110 3111 3112 3114 3114 3115 3117 3120 3123 3124 3127 3130 3134 3135 3138 3141 3143 3145 3145 3147 3148 3150 3152 3155 3157 3160 3162 3163 3165
3111 3110 3108 3105 3101 3098 3095 3093 3096 3097 3101 3100 3101 3102 3102 3103 3103 3104 3105 3106 3110 3111 3113 3116 3119 3123 3126 3129 3131 3134 3136 3138 3140 3142 3143 3145 3147 3150 3153 3155 3157 3159 3160
3105 3103 3102 3100 3098 3094 3091 3091 3091 3087 3086 3088 3094 3096 3096 3094 3094 3094 3095 3095 3099 3102 3103 3106 3109 3113 3118 3121 3124 3126 3129 3131 3134 3136 3138 3140 3142 3145 3147 3150 3152 3154 3156
3101 3098 3095 3094 3092 3090 3089 3088 3084 3082 3081 3083 3082 3084 3087 3086 3087 3087 3085 3085 3085 3089 3093 3097 3101 3105 3108 3113 3116 3119 3122 3125 3127 3129 3132 3133 3136 3139 3142 3144 3146 3149 3151
3094 3092 3089 3087 3086 3084 3081 3079 3077 3077 3076 3077 3076 3075 3077 3078 3079 3078 3077 3077 3077 3078 3086 3088 3092 3097 3099 3103 3108 3111 3114 3117 3120 3122 3125 3127 3130 3133 3136 3139 3141 3143 3146
3085 3084 3083 3080 3077 3075 3073 3072 3070 3069 3069 3068 3069 3069 3068 3069 3069 3068 3067 3067 3070 3070 3074 3076 3083 3085 3089 3094 3099 3101 3105 3109 3112 3114 3117 3120 3123 3125 3129 3133 3135 3138 3141
3077 3076 3074 3072 3069 3065 3064 3063 3062 3060 3058 3057 3057 3056 3057 3059 3060 3059 3059 3057 3059 3062 3064 3066 3069 3075 3079 3083 3088 3092 3095 3098 3102 3106 3109 3112 3115 3118 3122 3126 3129 3132 3135
3070 3067 3065 3062 3060 3059 3055 3053 3051 3050 3048 3046 3046 3044 3046 3049 3049 3048 3048 3050 3051 3052 3054 3056 3057 3063 3069 3072 3077 3081 3085 3089 3092 3096 3101 3104 3107 3111 3114 3118 3121 3125 3129
3059 3057 3055 3052 3049 3046 3045 3043 3040 3038 3037 3036 3034 3035 3033 3034 3035 3037 3038 3038 3040 3040 3043 3046 3047 3050 3056 3062 3065 3070 3074 3078 3083 3086 3090 3095 3098 3102 3105 3109 3113 3118 3122
3050 3046 3043 3041 3037 3035 3032 3031 3030 3028 3026 3025 3024 3023 3023 3022 3021 3021 3025 3026 3027 3029 3032 3033 3036 3038 3042 3050 3053 3057 3062 3068 3073 3076 3080 3085 3089 3093 3096 3100 3105 3109 3113
3041 3037 3032 3029 3026 3023 3021 3018 3018 3018 3018 3017 3015 3014 3012 3010 3008 3007 3008 3014 3013 3017 3019 3022 3024 3028 3029 3036 3041 3045 3051 3056 3063 3065 3068 3073 3078 3083 3087 3091 3095 3100 3105
3029 3025 3021 3017 3014 3012 3009 3007 3006 3004 3004 3004 3003 3002 3001 2997 2995 2993 2992 2996 2999 3003 3006 3008 3012 3015 3017 3019 3029 3034 3038 3046 3051 3055 3057 3061 3067 3072 3077 3081 3085 3090 3095
3018 3014 3010 3006 3003 2999 2997 2995 2992 2990 2990 2990 2990 2988 2986 2984 2983 2981 2979 2979 2983 2988 2992 2995 2997 3002 3005 3007 3014 3020 3026 3033 3039 3043 3047 3050 3055 3061 3066 3070 3074 3080 3085
3007 3002 2998 2995 2991 2987 2984 2981 2978 2976 2975 2972 2972 2973 2971 2970 2970 2969 2966 2967 2965 2971 2975 2981 2986 2988 2992 2995 2996 3004 3012 3019 3026 3030 3034 3039 3044 3050 3056 3059 3064 3069 3075
2996 2990 2986 2982 2978 2974 2970 2967 2963 2960 2958 2956 2955 2955 2955 2956 2956 2955 2953 2953 2951 2953 2958 2965 2969 2976 2978 2981 2984 2985 2993 3003 3011 3016 3021 3026 3032 3037 3043 3049 3053 3058 3063
2983 2977 2972 2968 2963 2959 2954 2951 2946 2944 2940 2939 2939 2940 2940 2941 2941 2940 2940 2940 2940 2938 2940 2951 2954 2958 2963 2964 2968 2972 2977 2984 2991 2999 3007 3013 3019 3024 3030 3037 3042 3047 3052
2969 2964 2959 2953 2949 2944 2940 2936 2932 2929 2926 2925 2925 2925 2925 2926 2926 2927 2927 2926 2926 2926 2925 2934 2938 2942 2947 2948 2951 2956 2963 2969 2975 2982 2992 2999 3006 3012 3017 3024 3031 3035 3041
2956 2950 2945 2940 2935 2931 2926 2922 2917 2915 2912 2910 2910 2909 2909 2911 2911 2913 2914 2914 2913 2914 2915 2917 2923 2928 2931 2936 2940 2945 2948 2954 2960 2968 2976 2982 2992 3000 3006 3011 3019 3026 3031
2944 2938 2933 2928 2923 2918 2913 2909 2904 2899 2896 2894 2893 2892 2893 2894 2894 2895 2897 2900 2901 2901 2903 2904 2907 2914 2918 2922 2927 2930 2939 2944 2948 2955 2961 2969 2977 2987 2994 3000 3007 3015 3021
2933 2927 2922 2916 2911 2906 2900 2895 2889 2884 2879 2876 2874 2874 2875 2876 2877 2878 2880 2883 2887 2888 2890 2892 2895 2900 2907 2909 2915 2919 2922 2932 2938 2943 2950 2957 2965 2973 2980 2987 2995 3002 3009
2921 2915 2909 2904 2898 2892 2886 2880 2874 2868 2862 2858 2858 2857 2857 2858 2860 2862 2864 2867 2871 2873 2876 2880 2883 2888 2892 2899 2905 2912 2916 2921 2926 2933 2941 2947 2953 2960 2968 2974 2981 2989 2996
2910 2904 2897 2890 2884 2877 2872 2864 2858 2851 2847 2844 2842 2842 2842 2842 2842 2844 2847 2850 2855 2858 2862 2866 2871 2876 2881 2888 2894 2902 2906 2912 2915 2922 2932 2938 2943 2949 2956 2963 2972 2979 2987
2898 2891 2884 2877 2869 2862 2857 2849 2844 2837 2833 2831 2830 2829 2829 2828 2829 2828 2830 2833 2837 2842 2847 2854 2858 2866 2873 2880 2886 2889 2896 2904 2907 2915 2925 2927 2932 2940 2947 2953 2961 2968 2975
2886 2879 2871 2864 2855 2849 2843 2837 2832 2826 2822 2820 2818 2817 2815 2815 2815 2816 2816 2817 2820 2825 2831 2839 2846 2856 2864 2873 2876 2879 2887 2894 2899 2905 2911 2918 2923 2930 2940 2946 2952 2958 2964
2875 2867 2860 2851 2843 2836 2831 2826 2821 2816 2811 2808 2806 2804 2802 2801 2801 2802 2802 2803 2806 2810 2818 2824 2833 2842 2850 2857 2864 2871 2873 2883 2889 2896 2902 2907 2913 2921 2930 2937 2942 2948 2953
2864 2857 2849 2840 2832 2825 2822 2816 2811 2804 2798 2795 2793 2790 2789 2788 2788 2788 2789 2791 2793 2800 2807 2813 2820 2828 2837 2846 2853 2861 2866 2874 2879 2886 2893 2900 2906 2914 2919 2923 2932 2939 2946
Wind_Speed
24 24 24 26 26 26 39 41 32 38 29 16 27 31 34 30 33 32 35 39 36 36 37 37 33 35 37 36 35 31 27 25 24 24 24 23 22 23 23 21 20 19 18
25 26 25 25 24 27 22 16 15 20 26 32 33 29 30 39 38 39 38 37 41 41 41 40 36 37 38 37 37 34 30 28 27 26 26 25 24 25 25 23 21 20 19
26 28 28 28 27 27 26 26 23 19 17 12 20 26 34 33 36 41 39 45 36 48 46 43 42 39 38 40 40 37 34 31 30 29 28 28 28 28 28 25 23 22 21
29 32 34 34 32 31 31 29 26 24 25 28 23 27 28 36 34 39 41 42 35 37 43 44 42 41 41 41 43 40 37 35 33 31 31 31 30 30 30 28 26 25 24
32 35 36 34 32 33 32 29 26 24 25 29 30 30 32 33 35 35 38 35 38 32 52 49 43 44 43 44 43 42 41 38 36 34 34 33 33 33 32 30 28 27 26
35 38 34 33 35 34 33 31 30 30 30 31 31 33 35 34 33 34 34 33 39 39 52 49 49 46 47 46 44 44 43 42 39 37 37 36 36 35 34 33 31 30 29
36 36 37 36 37 38 37 36 35 34 33 35 34 35 35 36 37 40 37 33 33 34 43 43 55 47 49 49 47 46 45 45 42 40 39 38 38 37 36 35 34 32 30
36 39 41 40 38 36 38 37 36 35 36 37 36 38 39 39 40 41 37 37 37 34 37 49 44 47 50 54 51 49 47 47 45 42 41 40 40 39 38 37 35 34 32
42 44 42 41 41 40 36 33 32 32 34 35 37 38 39 42 43 42 40 35 36 39 38 37 46 50 55 56 55 52 50 50 49 45 43 42 42 41 40 40 38 37 34
44 43 42 41 39 37 36 35 31 30 32 33 35 38 40 43 45 47 44 45 45 39 39 39 37 42 53 55 57 55 50 51 51 48 46 45 45 44 43 42 41 39 37
42 42 42 42 41 40 39 38 36 33 31 34 36 39 42 45 46 48 49 48 50 41 43 39 38 48 54 59 57 57 54 52 52 49 49 48 47 46 46 45 44 42 40
43 44 45 45 45 44 43 43 42 42 39 38 38 38 42 45 47 48 52 52 52 52 44 44 45 46 47 53 54 56 54 52 52 51 50 49 50 49 47 46 46 44 43
47 47 48 48 48 47 46 45 45 45 45 44 43 43 42 43 48 51 52 55 54 55 56 45 44 42 43 54 61 55 55 51 53 53 52 51 48 50 51 50 49 47 45
50 51 50 50 49 47 46 45 46 47 48 49 48 45 44 43 42 46 51 52 55 56 55 57 56 47 45 49 53 63 57 52 53 55 53 53 52 50 48 50 50 49 46
54 51 51 51 49 48 46 46 48 49 48 47 46 43 43 44 40 46 49 51 53 56 57 57 58 55 44 55 52 49 59 58 54 53 55 54 54 54 54 53 51 49 48
50 50 49 48 47 46 46 45 46 46 45 44 42 41 42 44 42 41 48 51 51 53 57 56 55 56 62 52 48 48 56 60 61 55 56 55 55 55 55 54 52 50 49
47 47 46 46 46 45 44 44 44 44 44 45 45 45 44 45 48 45 44 47 48 50 55 58 56 57 56 65 64 39 56 43 59 59 54 56 57 58 56 53 52 52 53
46 46 46 46 45 44 45 46 47 46 46 46 46 46 47 47 50 52 48 49 51 50 53 58 57 58 57 49 47 54 51 44 53 59 59 56 61 60 58 54 52 52 54
47 46 47 46 46 46 46 48 48 48 49 49 49 49 48 47 52 54 53 50 51 52 50 55 58 57 57 55 50 50 67 55 46 52 56 60 68 61 58 54 51 50 52
47 46 46 46 46 47 48 48 49 51 52 52 51 49 48 48 50 53 49 49 51 52 49 50 51 56 54 56 52 48 50 63 47 48 36 44 56 67 61 58 56 54 53
45 45 46 46 47 48 49 49 51 52 53 52 49 48 47 48 49 50 52 50 49 52 50 44 45 49 52 54 55 52 45 42 53 39 45 49 45 60 62 59 58 57 53
44 45 45 47 48 48 49 50 49 48 46 46 45 43 43 44 46 48 52 52 50 54 54 50 44 43 46 50 54 54 50 43 47 59 40 49 52 44 51 56 52 54 54
44 45 46 48 48 50 48 46 42 42 42 41 38 36 36 36 37 41 47 51 54 54 58 56 50 39 43 37 49 53 52 46 45 42 58 42 48 46 46 54 48 57 57
45 45 46 46 49 46 41 37 35 36 37 37 37 37 37 38 38 38 39 42 49 52 56 58 55 50 38 34 37 48 49 46 45 42 48 42 42 48 54 53 54 58 52
45 44 43 46 45 40 34 32 33 35 38 39 38 38 37 37 37 38 38 39 42 47 50 54 55 52 48 44 42 41 47 47 48 45 43 45 54 46 51 62 57 65 48
43 41 43 43 38 35 30 32 34 38 40 39 37 35 32 30 28 31 37 38 39 40 44 48 48 49 48 47 48 43 43 43 46 49 46 48 44 46 54 68 55 54 52
Wind_Direction
300 303 311 313 309 325 251 277 290 267 287 264 256 257 257 271 274 283 279 248 254 241 240 233 232 235 232 226 225 227 232 238 231 226 226 225 222 218 212 210 214 216 217
301 301 302 302 310 309 309 295 282 270 297 253 279 280 272 269 272 282 277 270 264 251 234 233 228 232 233 229 226 227 230 235 230 227 226 223 219 217 214 213 217 219 219
310 311 313 311 306 307 310 310 301 297 284 248 258 254 270 274 272 276 281 267 266 253 232 229 227 227 230 230 227 228 229 230 228 227 226 223 217 216 215 215 216 217 218
307 310 310 307 305 302 296 297 294 287 277 267 266 268 270 267 274 276 278 273 258 266 235 230 228 225 227 231 229 229 230 230 227 227 225 222 219 216 218 215 214 216 218
301 306 307 304 300 298 295 295 289 283 277 272 269 270 270 270 272 269 270 274 263 256 237 238 229 228 226 229 231 227 232 229 227 225 224 221 219 218 217 219 216 217 219
301 306 302 301 301 298 295 292 288 284 279 274 270 267 265 267 271 269 270 270 267 257 238 238 227 228 227 226 230 229 230 229 227 225 224 220 219 218 219 219 219 219 221
302 301 299 297 295 293 292 289 286 284 280 277 275 269 271 269 265 266 267 263 266 268 246 237 228 228 231 228 226 230 228 227 224 224 223 220 219 219 219 220 221 221 222
295 295 294 293 290 287 287 285 284 282 280 278 276 275 271 267 266 265 269 261 262 256 257 258 240 230 232 230 228 229 228 226 223 221 223 220 218 218 218 220 221 222 224
295 294 292 290 291 289 286 286 285 280 275 274 272 270 269 265 265 263 263 261 258 255 254 257 247 233 232 232 229 227 227 225 223 219 220 221 219 219 218 219 220 222 224
291 292 293 292 291 293 292 291 287 282 277 272 269 268 264 265 263 261 256 258 258 255 254 250 252 247 228 233 233 230 227 226 223 220 218 220 220 219 219 220 221 222 224
290 293 299 302 303 300 298 296 292 285 274 269 266 266 267 265 263 262 257 249 252 252 252 257 250 242 230 228 229 231 228 225 225 221 218 219 220 221 220 220 222 223 225
299 302 303 304 302 301 300 297 294 291 285 276 270 263 263 264 266 266 264 256 249 244 245 253 253 244 249 218 226 230 228 225 224 224 221 219 219 221 221 222 224 224 224
299 302 301 300 298 296 293 289 288 286 284 281 279 277 271 264 261 262 263 263 256 250 241 241 241 241 246 232 222 227 228 225 223 224 222 221 221 220 220 221 223 224 225
296 298 297 295 293 292 290 286 282 280 280 281 281 278 276 269 267 263 261 262 260 254 249 241 239 247 250 243 244 221 219 220 221 222 222 222 221 220 220 223 224 224 226
293 295 295 294 293 290 287 284 282 281 281 281 280 277 272 267 261 263 262 261 261 257 251 247 244 239 236 239 240 239 222 214 214 218 220 219 220 220 221 222 223 227 226
294 295 296 295 294 293 292 291 289 288 286 282 278 274 267 262 260 258 261 259 259 259 255 248 244 243 233 226 226 226 231 225 210 212 216 219 218 220 220 222 224 228 228
299 299 299 299 299 298 296 293 290 288 284 281 277 274 270 266 260 261 258 259 256 255 256 251 246 245 243 245 244 235 231 224 220 212 216 218 219 219 220 220 218 222 228
302 303 304 303 302 301 298 296 294 290 286 282 279 274 268 264 260 261 259 256 258 256 255 254 248 244 246 244 241 235 245 233 235 233 225 214 218 218 218 219 221 223 223
305 304 304 302 301 301 299 297 294 290 287 282 278 274 269 263 260 259 257 254 255 257 255 254 251 248 245 245 242 241 234 225 227 225 230 225 217 214 216 218 222 224 227
304 302 301 300 300 299 298 295 293 290 287 284 280 274 268 262 257 256 255 251 250 252 251 251 252 252 246 245 241 245 247 242 221 222 224 235 226 220 215 216 220 223 226
304 302 301 300 300 300 297 296 293 289 285 282 279 275 270 264 260 256 255 254 248 247 248 246 247 248 248 243 239 240 246 247 242 222 224 226 224 228 225 221 218 221 226
303 304 302 302 303 300 299 297 292 287 283 280 278 276 273 267 261 256 252 250 247 244 244 245 245 242 248 244 242 238 240 242 243 247 234 228 221 227 221 217 227 227 225
306 306 305 305 304 302 302 297 293 286 283 282 282 279 275 271 266 263 256 249 246 242 242 243 242 239 240 242 241 237 236 237 240 240 236 232 219 223 229 225 227 223 225
310 310 308 307 306 305 302 297 290 286 283 283 282 280 275 270 265 263 260 255 246 240 238 237 239 241 234 236 238 239 234 234 236 235 233 242 225 227 226 222 228 222 228
313 311 310 310 310 307 303 296 291 289 286 284 282 279 276 272 266 259 257 253 246 240 234 234 233 235 232 221 223 232 236 230 229 231 233 229 234 232 218 222 224 221 237
314 314 314 315 311 306 304 300 295 292 291 290 287 285 283 281 276 263 254 250 246 237 232 231 231 232 230 229 232 225 233 229 230 228 227 227 220 227 227 219 223 234 232